sat.trackr.live / text

‹ back to catalog

STARLINK-36980

NORAD 68146 · 2026-049E

PAYLOAD ACTIVE UNKNOWN

§ Identity

Operator
Country
US
Launch date
2026-03-13
Launch site
AFWTR
Launch vehicle
Mass (kg)
RCS (m²)

Purposes: comms

External: N2YO · Heavens-Above · Gunter

§ Orbital elements

Epoch: 2026-05-24T23:40:10.915680Z

Period
93.91 min
Inclination
97.2851°
Eccentricity
0.0001624
Mean motion
15.33451288 rev/d
Perigee alt
464.4 km
Apogee alt
466.6 km
Semi-major
6,843.7 km
B*
6.3292e-4
RAAN
166.7055°
Arg perigee
92.4371°
Mean anomaly
267.7058°
Rev number
1,134

§ Raw data

STARLINK-369801 68146U 26049E   26144.98623745  .00020418  00000+0  63292-3 0  99962 68146  97.2851 166.7055 0001624  92.4371 267.7058 15.33451288 11342

JSON: /api/v1/satellites/68146 · /tle

For live sub-satellite position, see the globe view (requires WebGL).

§ Visibility from observer

Set your observer location to see the next 7 days of passes ≥ 10°. The values pass through the URL so the page stays shareable.

No JS? Fill the form by hand. The geolocation button needs JavaScript.